Miscellaneous Local Product
Issued by NWS North Platte, NE

Home | Current Version | Previous Version | Text Only | Print | Product List | Glossary On
Versions: 1 2 3 4 5 6 7 8 9 10 11 12 13 14 15 16 17 18 19 20 21 22 23 24 25 26 27 28 29 30 31 32 33 34 35 36 37 38 39 40 41 42 43 44 45 46 47 48 49 50
000
AXUS43 KLBF 211910
MISLBF


WESTERN AND NORTH CENTRAL NEBRASKA HOURLY WEATHER ROUNDUP
NATIONAL WEATHER SERVICE NORTH PLATTE NE
200 PM CDT THU AUG 21 2014

***STATIONS NOT REPORTING VARIABLES SUCH AS SKY/WEATHER OR
PRESSURE ARE PROVIDED BY THE NEBRASKA DEPARTMENT OF
ROADS...RAWS...AND APRS NETWORKS...AND ARE NOT UNDER
NATIONAL WEATHER SERVICE QUALITY CONTROL***

...OBSERVATIONS IN AND NEAR THE EASTERN PANHANDLE OF NEBRASKA...

CITY           SKY/WX    TMP DP  RH WIND       PRES   REMARKS
PINE RIDGE     MOSUNNY   82  54  37 N5        29.98S
CHADRON        MOSUNNY   85  53  33 VRB3      29.96F
ALLIANCE       SUNNY     85  49  28 N9        30.00F
SIDNEY         SUNNY     86  50  28 N12G18    30.04S
WHITECLAY        N/A     81  54  38 CALM        N/A
RUSHVILLE        N/A     85  52  32 E10         N/A
GORDON           N/A     87  56  34 S8          N/A
CRESCENT LAKE    N/A     86  51  29 E6G14       N/A
LISCO            N/A     89  44  20 S6          N/A
BIG SPRINGS      N/A     82  61  48 N3          N/A
$$

...OBSERVATIONS IN NORTH CENTRAL NEBRASKA...

CITY           SKY/WX    TMP DP  RH WIND       PRES   REMARKS
VALENTINE      SUNNY     85  59  41 N12       29.92S
THEDFORD       SUNNY     85  61  43 NE6       29.95S
AINSWORTH      SUNNY     82  60  47 NE8       29.92S
O`NEILL        SUNNY     83  69  60 CALM      29.88S
ORD            SUNNY     85  68  56 VRB5      29.86S
BROKEN BOW     SUNNY     86  68  54 N6        29.90F
BROWNLEE         N/A     89  58  34 N7          N/A
SPRINGVIEW       N/A     85  65  50 NW3G12      N/A
ROSE             N/A     88  66  48 N3          N/A  HX  91
NEWPORT          N/A     85  64  48 W7          N/A
SARGENT          N/A     84  69  61 CALM        N/A
COMSTOCK         N/A     90  73  56 NE5         N/A  HX  98
CHAMBERS         N/A     86  69  56 W6          N/A  HX  90
EWING            N/A     85  75  72 CALM        N/A  HX  93
$$

...OBSERVATIONS IN SOUTHWEST NEBRASKA AND FAR NORTHEAST COLORADO...

CITY           SKY/WX    TMP DP  RH WIND       PRES   REMARKS
WRAY             N/A     91  46  21 W8        29.99F
IMPERIAL       SUNNY     88  54  31 NW10G16   29.96S
OGALLALA       SUNNY     86  53  31 CALM      29.95S
NORTH PLATTE   SUNNY     89  62  40 SE6       29.91S
MCCOOK         SUNNY     93  56  28 VRB5      29.90S HX  91
LEXINGTON      SUNNY     86  69  55 NW6       29.89S HX  90
PAXTON           N/A     85  58  39 CALM        N/A
SUTHERLAND       N/A     92  62  36 E6          N/A  HX  93
BRADY            N/A     85  67  54 CALM        N/A
GOTHENBURG       N/A     85  62  45 CALM        N/A
CALLAWAY         N/A     84  72  67 E7          N/A
$$

...SOME WEATHER OBSERVATIONS FROM AROUND THE REGION...

CITY           SKY/WX    TMP DP  RH WIND       PRES   REMARKS
DENVER         MOSUNNY   79  46  31 SE7       30.10F
LARAMIE        PTSUNNY   70  40  33 W17G24    30.21F
CHEYENNE       MOSUNNY   80  40  23 W18G26    30.15S
SCOTTSBLUFF    SUNNY     85  54  34 NW5       30.02S
RAPID CITY     MOSUNNY   80  55  42 E6        29.98R
PIERRE         SUNNY     82  63  52 N9        29.85S
WINNER         FAIR      86  63  45 NW13G21   29.88R
SIOUX FALLS    PTSUNNY   87  76  69 W7        29.78S HX  97
OMAHA          PTSUNNY   87  69  54 SW12      29.83R HX  91
GRAND ISLAND   MOSUNNY   87  70  56 S10       29.87R HX  92
KANSAS CITY    PTSUNNY   89  74  60 S13       29.90F HX  98
WICHITA        SUNNY     97  66  36 S22       29.88F HX 100
HAYS           SUNNY     97  66  36 S18       29.85S HX 100
LIBERAL        SUNNY     97  57  26 W12G22    29.92S HX  95
GOODLAND       SUNNY     90  49  24 N12G18    29.98F
$$



USA.gov is the U.S. government's official web portal to all federal, state and local government web resources and services.